Language: 


Des rapports , des résumés tant et plus, au choix de chacun....


Données statistiques de la station
Quotidien Rapport Décembre 6, 2017 Unités:  Métrique    Anglais   les deux
« Précédent Jour
Suivant Jour »
Quotidien Hebdomadaire Mensuel Annuel Actuel
  Haut: Bas: Moyen:
Température: 8.8 °C 0.0 °C 7.2 °C
Pt de rosée: 9.0 °C 4.0 °C 6.3 °C
Humidité: 98 % 0 % 91 %
Vitesse du vent: 17.7 km/h 0.0 km/h 5.4 km/h
Rafales: 27.0 km/h - -
Vent:- - SW
Pression: 1033.1 hPa 0.0 hPa -
Précipitation: 0.0 mm    
Historical Graphs
 
 
Données statistiques pour Décembre 6, 2017
Heure Température Point de rosée Pression Vent Vitesse du vent Refales Humidité Pluie (taux horaire)
00:01 6.4 °C 6.0 °C 1033.1 hPa Calm   5.0 km/h 96 % 0.0 mm
00:06 6.5 °C 6.0 °C 1033.1 hPa Calm   4.3 km/h 96 % 0.0 mm
00:11 6.5 °C 6.0 °C 1033.1 hPa SSW 6.4 km/h 7.6 km/h 96 % 0.0 mm
00:21 6.6 °C 6.0 °C 1033.1 hPa Calm   6.4 km/h 96 % 0.0 mm
00:27 6.7 °C 6.0 °C 1033.1 hPa WSW 5.8 km/h 5.8 km/h 96 % 0.0 mm
00:32 6.7 °C 6.0 °C 1033.1 hPa SSW 2.1 km/h 5.8 km/h 96 % 0.0 mm
00:37 6.7 °C 6.0 °C 1033.1 hPa SW 4.0 km/h 5.8 km/h 96 % 0.0 mm
00:42 6.7 °C 6.0 °C 1033.1 hPa Calm   4.7 km/h 96 % 0.0 mm
00:47 6.7 °C 6.0 °C 1033.1 hPa Calm   5.0 km/h 96 % 0.0 mm
00:52 6.8 °C 6.0 °C 1033.1 hPa Calm   6.1 km/h 96 % 0.0 mm
00:57 6.8 °C 6.0 °C 1033.1 hPa Calm   6.1 km/h 96 % 0.0 mm
00:58 6.8 °C 6.0 °C 1033.1 hPa Calm   6.1 km/h 96 % 0.0 mm
01:03 6.7 °C 6.0 °C 1033.1 hPa Calm     96 % 0.0 mm
01:08 6.7 °C 6.0 °C 1033.1 hPa Calm     96 % 0.0 mm
01:13 6.7 °C 6.0 °C 1033.1 hPa Calm     96 % 0.0 mm
01:18 6.7 °C 6.0 °C 1033.1 hPa Calm     96 % 0.0 mm
01:23 6.7 °C 6.0 °C 1033.1 hPa Calm     96 % 0.0 mm
01:28 6.7 °C 6.0 °C 1033.1 hPa Calm   5.0 km/h 96 % 0.0 mm
01:33 6.7 °C 6.0 °C 1033.1 hPa Calm   5.0 km/h 96 % 0.0 mm
01:38 6.7 °C 6.0 °C 1033.1 hPa Calm     96 % 0.0 mm
01:43 6.7 °C 6.0 °C 1033.1 hPa Calm     96 % 0.0 mm
01:48 6.5 °C 6.0 °C 1033.1 hPa SSW 4.0 km/h 4.3 km/h 95 % 0.0 mm
01:53 6.4 °C 6.0 °C 1033.1 hPa SSW 4.0 km/h 4.3 km/h 95 % 0.0 mm
01:58 6.3 °C 6.0 °C 1033.1 hPa Calm   5.8 km/h 95 % 0.0 mm
02:03 6.3 °C 6.0 °C 1033.1 hPa Calm   5.8 km/h 95 % 0.0 mm
02:08 6.3 °C 6.0 °C 1033.1 hPa Calm     96 % 0.0 mm
02:13 6.2 °C 6.0 °C 1033.1 hPa Calm     96 % 0.0 mm
02:18 6.2 °C 6.0 °C 1033.1 hPa Calm     96 % 0.0 mm
02:23 6.2 °C 6.0 °C 1033.1 hPa Calm     96 % 0.0 mm
02:28 6.2 °C 6.0 °C 1033.1 hPa Calm     96 % 0.0 mm
02:33 6.2 °C 6.0 °C 1033.1 hPa Calm   4.7 km/h 96 % 0.0 mm
02:38 6.2 °C 6.0 °C 1033.1 hPa Calm   4.7 km/h 96 % 0.0 mm
02:43 6.2 °C 6.0 °C 1033.1 hPa Calm   1.8 km/h 96 % 0.0 mm
02:48 6.2 °C 6.0 °C 1033.1 hPa Calm   1.8 km/h 97 % 0.0 mm
02:50 6.3 °C 6.0 °C 1033.1 hPa Calm   1.8 km/h 97 % 0.0 mm
02:55 6.3 °C 6.0 °C 1033.1 hPa Calm   5.5 km/h 97 % 0.0 mm
03:01 0.0 °C 6.0 °C 0.0 hPa Calm     0 % 0.0 mm
03:06 6.4 °C 6.0 °C 1033.1 hPa Calm   5.0 km/h 97 % 0.0 mm
03:11 6.4 °C 6.0 °C 1033.1 hPa Calm   5.8 km/h 97 % 0.0 mm
03:16 6.4 °C 6.0 °C 1033.1 hPa WSW 5.5 km/h 5.8 km/h 97 % 0.0 mm
03:21 6.5 °C 6.0 °C 1033.1 hPa Calm   5.5 km/h 97 % 0.0 mm
03:26 6.5 °C 6.0 °C 1032.1 hPa Calm   5.5 km/h 97 % 0.0 mm
03:31 6.5 °C 6.0 °C 1032.1 hPa Calm   4.3 km/h 97 % 0.0 mm
03:33 6.5 °C 6.0 °C 1032.1 hPa Calm   4.3 km/h 97 % 0.0 mm
03:38 6.5 °C 7.0 °C 1032.1 hPa Calm   1.4 km/h 98 % 0.0 mm
03:43 6.6 °C 7.0 °C 1032.1 hPa WSW 4.7 km/h 4.7 km/h 98 % 0.0 mm
03:44 6.5 °C 7.0 °C 1032.1 hPa WSW 4.3 km/h 6.1 km/h 98 % 0.0 mm
03:49 6.4 °C 6.0 °C 1032.1 hPa WSW 2.6 km/h 6.1 km/h 97 % 0.0 mm
03:55 6.4 °C 6.0 °C 1032.1 hPa Calm   4.7 km/h 97 % 0.0 mm
04:00 6.4 °C 6.0 °C 1032.1 hPa West 2.6 km/h 3.5 km/h 97 % 0.0 mm
04:05 6.4 °C 6.0 °C 1032.1 hPa West 1.4 km/h 2.6 km/h 97 % 0.0 mm
04:10 6.4 °C 6.0 °C 1032.1 hPa Calm   4.3 km/h 98 % 0.0 mm
04:15 6.4 °C 6.0 °C 1032.1 hPa Calm   4.3 km/h 98 % 0.0 mm
04:20 6.3 °C 6.0 °C 1032.1 hPa Calm   1.8 km/h 98 % 0.0 mm
04:25 6.3 °C 6.0 °C 1032.1 hPa Calm     98 % 0.0 mm
04:30 6.3 °C 6.0 °C 1032.1 hPa Calm     98 % 0.0 mm
04:35 6.2 °C 6.0 °C 1032.1 hPa Calm   4.0 km/h 98 % 0.0 mm
04:40 6.2 °C 6.0 °C 1031.0 hPa WSW 4.3 km/h 4.7 km/h 98 % 0.0 mm
04:44 6.1 °C 6.0 °C 1031.0 hPa Calm   4.7 km/h 98 % 0.0 mm
04:49 6.1 °C 6.0 °C 1031.0 hPa WSW 1.8 km/h 4.7 km/h 98 % 0.0 mm
04:54 6.0 °C 6.0 °C 1031.0 hPa Calm   4.0 km/h 98 % 0.0 mm
04:59 6.0 °C 6.0 °C 1031.0 hPa Calm   1.8 km/h 98 % 0.0 mm
05:04 6.0 °C 6.0 °C 1031.0 hPa Calm   2.1 km/h 98 % 0.0 mm
05:09 6.0 °C 6.0 °C 1031.0 hPa Calm   3.2 km/h 98 % 0.0 mm
05:14 6.0 °C 6.0 °C 1031.0 hPa Calm   3.2 km/h 98 % 0.0 mm
05:19 6.1 °C 6.0 °C 1031.0 hPa Calm     98 % 0.0 mm
05:24 6.1 °C 6.0 °C 1031.0 hPa Calm     98 % 0.0 mm
05:29 6.2 °C 6.0 °C 1031.0 hPa Calm     98 % 0.0 mm
05:34 6.2 °C 6.0 °C 1031.0 hPa Calm     98 % 0.0 mm
05:39 6.2 °C 6.0 °C 1031.0 hPa Calm     98 % 0.0 mm
05:44 6.3 °C 6.0 °C 1030.0 hPa Calm     98 % 0.0 mm
05:49 6.3 °C 6.0 °C 1030.0 hPa Calm     98 % 0.0 mm
05:54 6.1 °C 6.0 °C 1030.0 hPa Calm     98 % 0.0 mm
06:00 6.1 °C 6.0 °C 1031.0 hPa Calm     98 % 0.0 mm
06:05 6.2 °C 6.0 °C 1031.0 hPa Calm     98 % 0.0 mm
06:10 6.1 °C 6.0 °C 1031.0 hPa Calm     98 % 0.0 mm
06:15 6.0 °C 6.0 °C 1031.0 hPa Calm     98 % 0.0 mm
06:20 6.0 °C 6.0 °C 1031.0 hPa Calm     98 % 0.0 mm
06:25 6.0 °C 6.0 °C 1031.0 hPa Calm     98 % 0.0 mm
06:30 6.0 °C 6.0 °C 1031.0 hPa Calm     98 % 0.0 mm
06:35 6.0 °C 6.0 °C 1031.0 hPa Calm     98 % 0.0 mm
06:40 6.0 °C 6.0 °C 1031.0 hPa Calm   1.4 km/h 98 % 0.0 mm
06:45 6.0 °C 6.0 °C 1032.1 hPa Calm   1.4 km/h 98 % 0.0 mm
06:55 6.1 °C 6.0 °C 1032.1 hPa SW 4.7 km/h 4.7 km/h 98 % 0.0 mm
07:00 6.2 °C 6.0 °C 1031.0 hPa SW 4.3 km/h 5.0 km/h 98 % 0.0 mm
07:05 6.3 °C 6.0 °C 1031.0 hPa Calm   5.0 km/h 98 % 0.0 mm
07:10 6.4 °C 6.0 °C 1031.0 hPa Calm   4.3 km/h 98 % 0.0 mm
07:15 6.4 °C 6.0 °C 1031.0 hPa Calm   4.3 km/h 98 % 0.0 mm
07:20 6.5 °C 7.0 °C 1031.0 hPa Calm   4.3 km/h 98 % 0.0 mm
07:25 6.5 °C 7.0 °C 1031.0 hPa Calm   2.1 km/h 98 % 0.0 mm
07:30 6.5 °C 7.0 °C 1031.0 hPa Calm     98 % 0.0 mm
07:35 6.6 °C 7.0 °C 1031.0 hPa Calm     98 % 0.0 mm
07:40 6.6 °C 7.0 °C 1031.0 hPa SSE 9.3 km/h 9.3 km/h 98 % 0.0 mm
07:45 6.7 °C 7.0 °C 1031.0 hPa WSW 5.0 km/h 9.3 km/h 98 % 0.0 mm
07:46 6.7 °C 7.0 °C 1031.0 hPa WSW 5.0 km/h 9.3 km/h 98 % 0.0 mm
07:51 6.7 °C 7.0 °C 1031.0 hPa West 6.4 km/h 6.9 km/h 98 % 0.0 mm
07:56 6.8 °C 7.0 °C 1031.0 hPa West 4.7 km/h 6.4 km/h 98 % 0.0 mm
08:01 6.8 °C 7.0 °C 1031.0 hPa Calm   6.4 km/h 98 % 0.0 mm
08:06 6.8 °C 7.0 °C 1031.0 hPa Calm   4.7 km/h 98 % 0.0 mm
08:11 6.7 °C 7.0 °C 1031.0 hPa SSW 5.0 km/h 5.0 km/h 98 % 0.0 mm
08:16 6.7 °C 7.0 °C 1031.0 hPa SSW 5.0 km/h 5.5 km/h 98 % 0.0 mm
08:21 6.7 °C 7.0 °C 1031.0 hPa Calm   5.5 km/h 98 % 0.0 mm
08:26 6.7 °C 7.0 °C 1031.0 hPa Calm   5.0 km/h 98 % 0.0 mm
08:31 6.7 °C 7.0 °C 1031.0 hPa Calm   5.0 km/h 98 % 0.0 mm
08:36 6.7 °C 7.0 °C 1031.0 hPa WSW 5.0 km/h 5.0 km/h 98 % 0.0 mm
08:42 6.7 °C 7.0 °C 1031.0 hPa Calm   5.0 km/h 98 % 0.0 mm
08:47 6.7 °C 7.0 °C 1031.0 hPa Calm   5.0 km/h 98 % 0.0 mm
08:52 6.7 °C 7.0 °C 1031.0 hPa Calm     98 % 0.0 mm
08:57 6.7 °C 7.0 °C 1031.0 hPa Calm     98 % 0.0 mm
09:02 6.7 °C 7.0 °C 1031.0 hPa Calm     98 % 0.0 mm
09:07 6.7 °C 7.0 °C 1031.0 hPa Calm     98 % 0.0 mm
09:12 6.7 °C 7.0 °C 1030.0 hPa Calm     98 % 0.0 mm
09:17 6.7 °C 7.0 °C 1030.0 hPa Calm   3.2 km/h 98 % 0.0 mm
09:18 6.7 °C 7.0 °C 1030.0 hPa Calm   3.2 km/h 98 % 0.0 mm
09:23 6.8 °C 7.0 °C 1030.0 hPa Calm   3.2 km/h 98 % 0.0 mm
09:28 6.8 °C 7.0 °C 1031.0 hPa SW 4.0 km/h 4.0 km/h 98 % 0.0 mm
09:33 6.8 °C 7.0 °C 1031.0 hPa Calm   5.8 km/h 98 % 0.0 mm
09:38 6.9 °C 7.0 °C 1031.0 hPa Calm   5.8 km/h 98 % 0.0 mm
09:43 6.9 °C 7.0 °C 1031.0 hPa SW 4.3 km/h 5.0 km/h 98 % 0.0 mm
09:48 7.0 °C 7.0 °C 1031.0 hPa Calm   5.0 km/h 98 % 0.0 mm
09:53 7.0 °C 7.0 °C 1031.0 hPa Calm   2.6 km/h 98 % 0.0 mm
09:58 7.0 °C 7.0 °C 1031.0 hPa SW 4.7 km/h 4.7 km/h 98 % 0.0 mm
10:03 7.1 °C 7.0 °C 1031.0 hPa Calm   4.7 km/h 98 % 0.0 mm
10:08 7.1 °C 7.0 °C 1031.0 hPa Calm   2.1 km/h 98 % 0.0 mm
10:13 7.1 °C 7.0 °C 1031.0 hPa Calm   2.6 km/h 98 % 0.0 mm
10:18 7.2 °C 7.0 °C 1031.0 hPa Calm   2.6 km/h 98 % 0.0 mm
10:23 7.3 °C 7.0 °C 1031.0 hPa Calm     98 % 0.0 mm
10:28 7.3 °C 7.0 °C 1031.0 hPa Calm     98 % 0.0 mm
10:33 7.4 °C 7.0 °C 1031.0 hPa Calm     98 % 0.0 mm
10:38 7.4 °C 7.0 °C 1031.0 hPa Calm     98 % 0.0 mm
10:43 7.4 °C 7.0 °C 1031.0 hPa Calm     98 % 0.0 mm
10:48 7.5 °C 8.0 °C 1031.0 hPa Calm     98 % 0.0 mm
10:53 7.5 °C 8.0 °C 1031.0 hPa SW 5.5 km/h 6.4 km/h 98 % 0.0 mm
10:58 7.6 °C 8.0 °C 1031.0 hPa SW 4.7 km/h 6.9 km/h 98 % 0.0 mm
11:03 7.7 °C 8.0 °C 1031.0 hPa SW 6.4 km/h 6.9 km/h 98 % 0.0 mm
11:08 7.7 °C 8.0 °C 1031.0 hPa Calm   8.7 km/h 98 % 0.0 mm
11:13 7.8 °C 8.0 °C 1031.0 hPa SSW 4.3 km/h 8.7 km/h 98 % 0.0 mm
11:18 7.9 °C 8.0 °C 1031.0 hPa SSW 4.0 km/h 9.7 km/h 98 % 0.0 mm
11:29 8.0 °C 8.0 °C 1030.0 hPa SSW 5.0 km/h 8.7 km/h 98 % 0.0 mm
11:34 8.1 °C 8.0 °C 1030.0 hPa South 7.9 km/h 9.0 km/h 98 % 0.0 mm
11:39 8.1 °C 8.0 °C 1030.0 hPa SW 9.3 km/h 9.3 km/h 98 % 0.0 mm
11:44 8.2 °C 8.0 °C 1031.0 hPa SW 11.6 km/h 12.2 km/h 98 % 0.0 mm
11:49 8.2 °C 8.0 °C 1031.0 hPa WSW 6.1 km/h 12.2 km/h 98 % 0.0 mm
11:54 8.2 °C 8.0 °C 1031.0 hPa WSW 13.7 km/h 13.7 km/h 98 % 0.0 mm
11:59 8.2 °C 8.0 °C 1030.0 hPa SW 10.5 km/h 13.7 km/h 98 % 0.0 mm
12:04 8.2 °C 8.0 °C 1030.0 hPa SW 9.0 km/h 11.9 km/h 98 % 0.0 mm
12:09 8.2 °C 8.0 °C 1030.0 hPa SSW 6.9 km/h 10.5 km/h 98 % 0.0 mm
12:14 8.2 °C 8.0 °C 1030.0 hPa SSW 14.0 km/h 14.0 km/h 98 % 0.0 mm
12:19 8.3 °C 9.0 °C 1030.0 hPa WSW 9.0 km/h 14.0 km/h 98 % 0.0 mm
12:24 8.3 °C 9.0 °C 1030.0 hPa Calm   14.0 km/h 98 % 0.0 mm
12:29 8.3 °C 9.0 °C 1030.0 hPa WSW 6.1 km/h 9.3 km/h 98 % 0.0 mm
12:34 8.4 °C 9.0 °C 1030.0 hPa WSW 9.0 km/h 11.9 km/h 98 % 0.0 mm
12:39 8.4 °C 9.0 °C 1030.0 hPa SW 10.1 km/h 11.9 km/h 98 % 0.0 mm
12:44 8.5 °C 9.0 °C 1030.0 hPa WSW 10.1 km/h 11.9 km/h 98 % 0.0 mm
12:49 8.5 °C 9.0 °C 1030.0 hPa SW 6.9 km/h 12.2 km/h 98 % 0.0 mm
12:54 8.5 °C 9.0 °C 1030.0 hPa WSW 10.1 km/h 13.0 km/h 98 % 0.0 mm
12:59 8.5 °C 9.0 °C 1030.0 hPa SW 12.6 km/h 13.0 km/h 98 % 0.0 mm
13:04 8.6 °C 9.0 °C 1030.0 hPa SW 9.3 km/h 12.6 km/h 98 % 0.0 mm
13:09 8.6 °C 9.0 °C 1030.0 hPa WSW 9.0 km/h 16.6 km/h 98 % 0.0 mm
13:14 8.6 °C 9.0 °C 1030.0 hPa WSW 9.3 km/h 16.6 km/h 98 % 0.0 mm
13:19 8.6 °C 9.0 °C 1030.0 hPa WSW 8.7 km/h 14.0 km/h 98 % 0.0 mm
13:24 8.5 °C 9.0 °C 1030.0 hPa WSW 7.9 km/h 12.2 km/h 98 % 0.0 mm
13:29 8.5 °C 9.0 °C 1029.0 hPa SW 9.7 km/h 11.9 km/h 97 % 0.0 mm
13:35 8.6 °C 9.0 °C 1029.0 hPa Calm   10.5 km/h 97 % 0.0 mm
13:40 8.6 °C 9.0 °C 1029.0 hPa Calm   10.5 km/h 97 % 0.0 mm
13:45 8.7 °C 9.0 °C 1029.0 hPa SSW 6.4 km/h 8.7 km/h 97 % 0.0 mm
13:50 8.7 °C 9.0 °C 1029.0 hPa SW 9.0 km/h 10.1 km/h 96 % 0.0 mm
13:55 8.7 °C 9.0 °C 1029.0 hPa WSW 6.9 km/h 10.5 km/h 96 % 0.0 mm
14:00 8.7 °C 8.0 °C 1028.0 hPa SW 8.7 km/h 10.5 km/h 95 % 0.0 mm
14:05 8.8 °C 9.0 °C 1028.0 hPa SW 6.1 km/h 10.5 km/h 95 % 0.0 mm
14:10 8.8 °C 9.0 °C 1028.0 hPa SW 1.4 km/h 8.7 km/h 95 % 0.0 mm
14:15 8.8 °C 8.0 °C 1028.0 hPa WSW 9.0 km/h 10.8 km/h 94 % 0.0 mm
14:20 8.8 °C 8.0 °C 1028.0 hPa SW 6.4 km/h 10.8 km/h 94 % 0.0 mm
14:25 8.8 °C 8.0 °C 1028.0 hPa SW 5.8 km/h 9.7 km/h 93 % 0.0 mm
14:30 8.8 °C 8.0 °C 1030.0 hPa SW 8.7 km/h 9.7 km/h 93 % 0.0 mm
14:35 8.8 °C 8.0 °C 1030.0 hPa SSW 10.1 km/h 10.5 km/h 92 % 0.0 mm
14:40 8.8 °C 8.0 °C 1030.0 hPa SSW 10.5 km/h 10.5 km/h 92 % 0.0 mm
14:45 8.8 °C 8.0 °C 1029.0 hPa SW 9.3 km/h 12.2 km/h 91 % 0.0 mm
14:50 8.8 °C 8.0 °C 1029.0 hPa SW 9.7 km/h 12.6 km/h 91 % 0.0 mm
14:55 8.8 °C 8.0 °C 1029.0 hPa SSW 6.4 km/h 14.3 km/h 90 % 0.0 mm
15:00 8.8 °C 8.0 °C 1029.0 hPa SW 9.7 km/h 14.3 km/h 89 % 0.0 mm
15:05 8.8 °C 8.0 °C 1029.0 hPa WSW 10.1 km/h 12.2 km/h 89 % 0.0 mm
15:10 8.8 °C 7.0 °C 1029.0 hPa SW 12.2 km/h 12.2 km/h 88 % 0.0 mm
15:15 8.7 °C 7.0 °C 1029.0 hPa SW 11.9 km/h 12.6 km/h 88 % 0.0 mm
15:21 8.7 °C 7.0 °C 1029.0 hPa WSW 6.1 km/h 12.6 km/h 88 % 0.0 mm
15:26 8.7 °C 7.0 °C 1029.0 hPa SW 9.0 km/h 14.0 km/h 87 % 0.0 mm
15:31 8.7 °C 7.0 °C 1029.0 hPa SW 13.0 km/h 14.0 km/h 87 % 0.0 mm
15:36 8.7 °C 7.0 °C 1029.0 hPa WSW 10.8 km/h 15.4 km/h 86 % 0.0 mm
15:41 8.7 °C 7.0 °C 1029.0 hPa WSW 8.7 km/h 15.4 km/h 86 % 0.0 mm
15:46 8.7 °C 7.0 °C 1028.0 hPa SSW 9.3 km/h 12.6 km/h 86 % 0.0 mm
15:51 8.7 °C 7.0 °C 1028.0 hPa SW 14.0 km/h 14.0 km/h 86 % 0.0 mm
15:56 8.7 °C 7.0 °C 1028.0 hPa SSW 11.6 km/h 14.0 km/h 85 % 0.0 mm
16:01 8.6 °C 7.0 °C 1028.0 hPa SW 14.0 km/h 15.8 km/h 85 % 0.0 mm
16:06 8.6 °C 7.0 °C 1028.0 hPa SSW 10.1 km/h 20.1 km/h 85 % 0.0 mm
16:11 8.6 °C 6.0 °C 1028.0 hPa SSW 13.0 km/h 20.1 km/h 84 % 0.0 mm
16:16 8.6 °C 6.0 °C 1028.0 hPa SSW 10.1 km/h 14.0 km/h 84 % 0.0 mm
16:21 8.6 °C 6.0 °C 1028.0 hPa SW 7.9 km/h 14.0 km/h 84 % 0.0 mm
16:26 8.5 °C 6.0 °C 1028.0 hPa SW 13.0 km/h 14.0 km/h 83 % 0.0 mm
16:31 8.5 °C 6.0 °C 1028.0 hPa SW 11.6 km/h 14.0 km/h 83 % 0.0 mm
16:36 8.5 °C 6.0 °C 1028.0 hPa SW 8.7 km/h 13.7 km/h 83 % 0.0 mm
16:37 8.5 °C 6.0 °C 1028.0 hPa WSW 11.6 km/h 13.7 km/h 83 % 0.0 mm
16:42 8.5 °C 6.0 °C 1027.0 hPa SSW 10.5 km/h 16.3 km/h 83 % 0.0 mm
16:47 8.5 °C 6.0 °C 1027.0 hPa SW 10.1 km/h 16.3 km/h 83 % 0.0 mm
16:53 8.4 °C 6.0 °C 1027.0 hPa South 7.9 km/h 13.0 km/h 83 % 0.0 mm
16:58 8.3 °C 6.0 °C 1027.0 hPa SSW 9.0 km/h 11.9 km/h 84 % 0.0 mm
17:03 8.3 °C 6.0 °C 1027.0 hPa SSE 10.1 km/h 11.9 km/h 83 % 0.0 mm
17:08 8.3 °C 6.0 °C 1027.0 hPa SW 9.3 km/h 10.1 km/h 83 % 0.0 mm
17:18 8.2 °C 6.0 °C 1027.0 hPa SSW 4.3 km/h 11.6 km/h 83 % 0.0 mm
17:23 8.2 °C 6.0 °C 1027.0 hPa SSW 5.8 km/h 11.9 km/h 83 % 0.0 mm
17:28 8.2 °C 6.0 °C 1027.0 hPa Calm   11.9 km/h 83 % 0.0 mm
17:33 8.1 °C 6.0 °C 1027.0 hPa South 5.5 km/h 12.2 km/h 83 % 0.0 mm
17:38 8.1 °C 6.0 °C 1027.0 hPa South 12.6 km/h 12.6 km/h 83 % 0.0 mm
17:43 8.1 °C 6.0 °C 1027.0 hPa SSW 6.1 km/h 13.0 km/h 82 % 0.0 mm
17:48 8.1 °C 6.0 °C 1027.0 hPa South 13.0 km/h 13.7 km/h 82 % 0.0 mm
17:53 8.1 °C 5.0 °C 1027.0 hPa SSW 5.0 km/h 14.0 km/h 81 % 0.0 mm
17:55 8.1 °C 5.0 °C 1027.0 hPa South 7.9 km/h 14.0 km/h 81 % 0.0 mm
18:00 8.1 °C 5.0 °C 1027.0 hPa SW 8.7 km/h 14.0 km/h 81 % 0.0 mm
18:05 8.1 °C 5.0 °C 1027.0 hPa SSE 10.5 km/h 10.5 km/h 81 % 0.0 mm
18:10 8.0 °C 5.0 °C 1027.0 hPa SSW 6.9 km/h 10.5 km/h 81 % 0.0 mm
18:15 8.0 °C 5.0 °C 1027.0 hPa SSW 7.2 km/h 10.8 km/h 81 % 0.0 mm
18:20 8.0 °C 5.0 °C 1027.0 hPa SSW 6.9 km/h 16.6 km/h 81 % 0.0 mm
18:25 8.0 °C 5.0 °C 1026.0 hPa SW 6.9 km/h 16.6 km/h 80 % 0.0 mm
18:30 8.0 °C 5.0 °C 1026.0 hPa SSW 9.3 km/h 13.7 km/h 80 % 0.0 mm
18:35 8.0 °C 5.0 °C 1026.0 hPa SSW 10.8 km/h 13.7 km/h 80 % 0.0 mm
18:41 7.9 °C 5.0 °C 1027.0 hPa WSW 6.1 km/h 10.8 km/h 80 % 0.0 mm
18:46 7.9 °C 5.0 °C 1027.0 hPa SSW 13.7 km/h 13.7 km/h 80 % 0.0 mm
18:51 7.9 °C 5.0 °C 1027.0 hPa SSW 10.5 km/h 14.3 km/h 79 % 0.0 mm
18:56 7.9 °C 5.0 °C 1027.0 hPa SW 9.0 km/h 14.3 km/h 79 % 0.0 mm
19:01 7.9 °C 5.0 °C 1027.0 hPa South 5.8 km/h 13.0 km/h 79 % 0.0 mm
19:06 7.8 °C 4.0 °C 1027.0 hPa SSW 9.0 km/h 13.0 km/h 79 % 0.0 mm
19:11 7.8 °C 4.0 °C 1027.0 hPa SSW 10.5 km/h 16.6 km/h 79 % 0.0 mm
19:16 7.8 °C 4.0 °C 1027.0 hPa SSW 12.2 km/h 16.6 km/h 79 % 0.0 mm
19:21 7.7 °C 4.0 °C 1027.0 hPa South 6.4 km/h 14.0 km/h 79 % 0.0 mm
19:31 7.6 °C 4.0 °C 1026.0 hPa SSW 16.6 km/h 16.6 km/h 79 % 0.0 mm
19:32 7.6 °C 5.0 °C 1026.0 hPa SSW 9.0 km/h 16.6 km/h 80 % 0.0 mm
19:37 7.6 °C 5.0 °C 1026.0 hPa SSW 6.4 km/h 16.6 km/h 80 % 0.0 mm
19:42 7.6 °C 4.0 °C 1026.0 hPa South 9.0 km/h 13.0 km/h 79 % 0.0 mm
19:47 7.5 °C 5.0 °C 1026.0 hPa SSW 12.2 km/h 15.1 km/h 80 % 0.0 mm
19:52 7.5 °C 5.0 °C 1026.0 hPa SSW 9.7 km/h 18.3 km/h 80 % 0.0 mm
19:57 7.5 °C 5.0 °C 1026.0 hPa SW 6.9 km/h 18.3 km/h 80 % 0.0 mm
20:02 7.4 °C 4.0 °C 1026.0 hPa South 9.3 km/h 13.7 km/h 80 % 0.0 mm
20:07 7.4 °C 4.0 °C 1026.0 hPa SSW 7.9 km/h 14.0 km/h 80 % 0.0 mm
20:12 7.4 °C 4.0 °C 1026.0 hPa South 7.6 km/h 14.0 km/h 79 % 0.0 mm
20:17 7.4 °C 4.0 °C 1026.0 hPa SSW 11.9 km/h 13.0 km/h 80 % 0.0 mm
20:22 7.4 °C 4.0 °C 1026.0 hPa SSW 10.8 km/h 14.0 km/h 79 % 0.0 mm
20:27 7.3 °C 4.0 °C 1026.0 hPa SSW 9.0 km/h 14.0 km/h 80 % 0.0 mm
20:32 7.3 °C 4.0 °C 1026.0 hPa SSW 9.0 km/h 16.6 km/h 80 % 0.0 mm
20:37 7.3 °C 4.0 °C 1026.0 hPa SSW 9.7 km/h 16.6 km/h 79 % 0.0 mm
20:42 7.3 °C 4.0 °C 1026.0 hPa South 10.5 km/h 13.7 km/h 80 % 0.0 mm
20:48 7.2 °C 4.0 °C 1026.0 hPa South 6.9 km/h 15.4 km/h 80 % 0.0 mm
20:53 7.2 °C 4.0 °C 1026.0 hPa SSW 9.3 km/h 15.8 km/h 79 % 0.0 mm
20:58 7.2 °C 4.0 °C 1024.9 hPa SSW 6.1 km/h 15.8 km/h 80 % 0.0 mm
21:03 7.1 °C 4.0 °C 1024.9 hPa SW 10.8 km/h 16.3 km/h 80 % 0.0 mm
21:08 7.1 °C 4.0 °C 1024.9 hPa SSW 9.7 km/h 16.9 km/h 80 % 0.0 mm
21:13 7.1 °C 4.0 °C 1024.9 hPa SSW 11.9 km/h 16.9 km/h 81 % 0.0 mm
21:18 7.0 °C 4.0 °C 1024.9 hPa SW 12.2 km/h 14.0 km/h 81 % 0.0 mm
21:23 7.0 °C 4.0 °C 1024.9 hPa WSW 11.9 km/h 17.2 km/h 82 % 0.0 mm
21:33 7.0 °C 4.0 °C 1024.9 hPa SW 8.7 km/h 16.9 km/h 83 % 0.0 mm
21:39 7.0 °C 4.0 °C 1024.9 hPa South 9.0 km/h 16.9 km/h 83 % 0.0 mm
21:44 7.0 °C 5.0 °C 1024.9 hPa SSW 9.7 km/h 16.9 km/h 84 % 0.0 mm
21:49 7.0 °C 5.0 °C 1024.9 hPa SW 7.6 km/h 14.3 km/h 84 % 0.0 mm
21:54 7.0 °C 5.0 °C 1024.9 hPa SSW 10.5 km/h 16.3 km/h 85 % 0.0 mm
21:59 7.0 °C 5.0 °C 1024.9 hPa WSW 13.7 km/h 16.3 km/h 85 % 0.0 mm
22:04 6.9 °C 5.0 °C 1024.9 hPa SW 8.7 km/h 15.8 km/h 85 % 0.0 mm
22:09 6.9 °C 5.0 °C 1024.9 hPa SSW 9.7 km/h 15.8 km/h 86 % 0.0 mm
22:14 6.9 °C 5.0 °C 1024.9 hPa South 15.8 km/h 15.8 km/h 86 % 0.0 mm
22:19 6.9 °C 5.0 °C 1024.9 hPa South 10.5 km/h 15.8 km/h 86 % 0.0 mm
22:24 6.9 °C 5.0 °C 1024.9 hPa South 9.7 km/h 20.1 km/h 86 % 0.0 mm
22:29 6.9 °C 5.0 °C 1024.9 hPa SSW 10.1 km/h 20.1 km/h 86 % 0.0 mm
22:34 6.9 °C 5.0 °C 1024.9 hPa SW 16.3 km/h 19.8 km/h 86 % 0.0 mm
22:39 6.9 °C 5.0 °C 1024.9 hPa SSW 7.9 km/h 27.0 km/h 86 % 0.0 mm
22:49 6.8 °C 5.0 °C 1024.9 hPa SSW 15.4 km/h 19.8 km/h 85 % 0.0 mm
22:55 6.8 °C 5.0 °C 1024.9 hPa SW 10.5 km/h 16.3 km/h 85 % 0.0 mm
23:00 6.8 °C 5.0 °C 1023.9 hPa WSW 9.7 km/h 16.3 km/h 85 % 0.0 mm
23:05 6.8 °C 4.0 °C 1023.9 hPa SSW 11.9 km/h 15.4 km/h 84 % 0.0 mm
23:10 6.8 °C 4.0 °C 1023.9 hPa SSW 15.8 km/h 15.8 km/h 83 % 0.0 mm
23:15 6.8 °C 4.0 °C 1023.9 hPa SSW 13.0 km/h 16.6 km/h 82 % 0.0 mm
23:20 6.8 °C 4.0 °C 1023.9 hPa SW 13.0 km/h 16.6 km/h 82 % 0.0 mm
23:25 6.8 °C 4.0 °C 1023.9 hPa SSW 17.7 km/h 17.7 km/h 82 % 0.0 mm
23:30 6.8 °C 4.0 °C 1023.9 hPa SSW 16.3 km/h 17.7 km/h 81 % 0.0 mm
23:35 6.8 °C 4.0 °C 1023.9 hPa South 10.5 km/h 17.2 km/h 82 % 0.0 mm
23:40 6.7 °C 4.0 °C 1023.9 hPa SSW 11.9 km/h 16.9 km/h 83 % 0.0 mm
23:45 6.7 °C 4.0 °C 1022.9 hPa SSW 13.0 km/h 16.6 km/h 84 % 0.0 mm
23:50 6.7 °C 4.0 °C 1022.9 hPa SSW 7.9 km/h 20.9 km/h 84 % 0.0 mm
23:55 6.7 °C 4.0 °C 1022.9 hPa SSW 16.6 km/h 20.9 km/h 84 % 0.0 mm
Le Gheer Warneton
Courtoisie de Weather Underground - 2.25 mb

Mise a jour : 18/12/2017 17:27:12
Généré par Cumulus 1.9.4 (1099)